IRIDIUM 50 [-]

Last updated on Mon Sep 17 2018 16:46:30 GMT+0000 (Coordinated Universal Time)

1 25172U 98010D 18259.93396582 .02369780 -15928-5 83059-3 0 9999 2 25172 86.7080 158.7557 0241783 131.2358 231.0037 15.83466332 77386

Satellite not in orbit